Location: NCO
(38.4404°N, 77.1340°W)
Time: 00:33:37
(UTC-05:00)

Envisat - Visible Passes

Search period start: 19 November 2018 00:00
Search period end: 29 November 2018 00:00
Orbit: 764 x 766 km, 98.2° (Epoch: 18 November)

Date Brightness Start Highest point End Pass type
(mag) Time Alt. Az. Time Alt. Az. Time Alt. Az.
19 Nov 4.0 18:06:08 19° E 18:08:01 24° ENE 18:12:01 10° NNE visible
19 Nov 4.3 19:46:21 37° WSW 19:46:48 38° W 19:51:32 10° NNW visible
20 Nov 4.8 17:30:35 10° ENE 17:31:45 11° ENE 17:32:56 10° NE visible
20 Nov 2.9 19:04:55 10° SSE 19:09:59 88° WSW 19:15:06 10° NNW visible
21 Nov 3.3 18:32:19 36° E 18:33:23 41° ENE 18:38:07 10° N visible
21 Nov 5.2 20:12:31 21° W 20:12:31 21° W 20:16:22 10° NW visible
22 Nov 4.2 17:55:15 16° E 17:56:58 19° ENE 18:00:27 10° NNE visible
22 Nov 3.8 19:30:41 10° S 19:35:34 49° W 19:40:30 10° NNW visible
23 Nov 2.8 18:53:46 10° SSE 18:58:48 73° ENE 19:03:54 10° N visible
23 Nov 5.9 20:38:37 11° W 20:38:37 11° W 20:39:59 10° WNW visible
24 Nov 3.6 18:21:20 30° E 18:22:15 32° ENE 18:26:44 10° N visible
24 Nov 4.9 19:56:58 10° SSW 20:01:33 27° W 20:05:32 10° NW visible
25 Nov 6.2 06:30:05 10° ENE 06:31:58 12° E 06:33:51 10° ESE visible
25 Nov 4.5 17:44:15 13° E 17:45:54 15° ENE 17:48:44 10° NNE visible
25 Nov 3.3 19:19:21 10° S 19:24:27 63° W 19:29:24 10° NNW visible
26 Nov 2.9 18:42:42 10° SSE 18:47:39 57° ENE 18:52:38 10° N visible
26 Nov 5.7 20:27:32 15° W 20:27:32 15° W 20:29:54 10° WNW visible
27 Nov 3.9 18:10:12 24° E 18:11:09 26° ENE 18:15:17 10° NNE visible
27 Nov 4.5 19:45:24 10° SSW 19:50:25 34° W 19:54:37 10° NNW visible
28 Nov 4.7 17:33:02 10° E 17:34:51 12° ENE 17:36:41 10° NE visible
28 Nov 3.0 19:08:05 10° S 19:13:14 80° W 19:18:16 10° NNW visible
